1st Responders/1st Detectors/Storm Spotters Weather Summary for Bracken County, KY

Forecast Maps


Reg. NEXRAD Animation


National Fire Danger: Day 1 & 2 Map

Current NWS Watch/Warnings

SPC Convective Day 1 Outlook


Day 2 Outlook

(Click images to enlarge|Page will refresh every 5 minutes)
UK Ag. Weather Center Desktop Severe Weather Service[HERE]
Bracken County, KY Hazardous Weather Outlook Webcast
(9 AM to 9 PM Mon-Fri)
[Fast]
[Dial-up]


UKAWC 1st Detectors/1st Responders Precision Weather Forecast For BRACKEN County, Kentucky
(based on the NWS County Digital Forecast)

ISSUED AT 16:00 UTC ON MONDAY APR 23 2018
DAY MONDAY
EDT 3HR 1P 2P 3P 4P 5P 6P 7P
MAX/MIN -- -- -- -- -- -- 59°
TEMP 59° 58° 58° 58° 58° 58° 56°
SKY COVER 100% 100% 99% 98% 98% 97% 95%
Clouds
DEW PT 52° 52° 52° 52° 52° 52° 50°
RH 74% 77% 78% 77% 77% 80% 80%
POP 12HR -- -- -- -- -- -- --
RAIN/SNOW (liq.equ) -- 0.20in -- -- -- -- --
SNOWFALL -- 0in -- -- -- -- --
WIND SPEED(MPH) 8 10 9 13 14 14 13
WIND Gust(MPH) 17 16 17 18 18 18 16
WIND DIR SE SE SE E E E E
DEW -- -- -- -- -- -- --
HeatIndex 59 58 58 58 58 58 56
Rain Showers Definite Definite Definite Definite Definite Definite Definite
WIND CHILL -- -- -- -- -- -- --
SPRAY COND
DRY COND
LIVESTOCK COLDSTRESS
LIVESTOCK HEATSTRESS 58.97 58.10 58.10 58.10 58.10 58.09 56.31



DAY TUESDAY WEDNESDAY THURSDAY FRIDAY SATURDAY SUNDAY
EDT 6HR 8P 9P 10P 11P MIDN 1A 2A 3A 4A 5A 6A 7A 8A 9A 10A 11A NOON 1P 2P 3P 4P 5P 6P 7P 8P 9P 10P 11P MIDN 2A 5A 8A 11A 2P 5P 8P 2A 8A 2P 8P 2A 8A 2P 8P 2A 8A 2P 8P 2A 8A 2P 8P
MAX/MIN -- -- -- -- -- -- -- -- -- -- -- -- 50° -- -- -- -- -- -- -- -- -- -- 58° -- -- -- -- -- -- -- 49° -- -- 59° -- -- 40° 63° -- -- 43° 63° -- -- 40° 61° -- -- 41° 67° --
TEMP 56° 56° 56° 54° 54° 54° 52° 52° 52° 52° 50° 50° 50° 52° 52° 54° 56° 56° 58° 58° 58° 58° 56° 56° 56° 54° 54° 54° 52° 52° 50° 50° 56° 58° 59° 56° 45° 43° 61° 58° 47° 43° 61° 58° 45° 41° 59° 58° 47° 43° 65° 63°
SKY COVER 93% 95% 98% 100% 100% 100% 100% 100% 100% 100% 100% 100% 100% 100% 100% 100% 100% 100% 100% 100% 100% 100% 100% 100% 100% 100% 100% 100% 97% 89% 88% 92% 92% 91% 82% 69% 51% 33% 26% 27% 39% 54% 66% 73% 55% 46% 35% 29% 14% 24% 20% 20%
Clouds
DEW PT 50° 50° 49° 49° 49° 49° 49° 49° 47° 47° 47° 47° 47° 49° 49° 49° 50° 50° 52° 52° 52° 52° 52° 52° 52° 50° 50° 50° 49° 49° 49° 49° 49° 49° 47° 43° 38° 36° 38° 40° 40° 40° 41° 40° 38° 36° 38° 40° 38° 38° 41° 43°
RH 80% 83% 80% 83% 86% 83% 85% 86% 86% 86% 88% 89% 89% 89% 86% 85% 83% 80% 80% 83% 83% 83% 86% 83% 83% 85% 89% 89% 89% 92% 93% 92% 77% 69% 62% 64% 78% 79% 43% 51% 73% 88% 47% 51% 73% 79% 45% 50% 70% 79% 41% 50%
POP 12HR 100% -- -- -- -- -- -- -- -- -- -- -- 80% -- -- -- -- -- -- -- -- -- -- -- 67% -- -- -- -- -- -- 43% -- -- -- 28% -- 10% -- 11% -- 14% -- 28% -- 30% -- 14% -- 10% -- 10%
RAIN/SNOW (liq.equ) 0.22in -- -- -- -- -- 0.07in -- -- -- -- -- 0.10in -- -- -- -- -- 0.10in -- -- -- -- -- 0.08in -- -- -- -- 0.01in -- 0.01in -- 0.01in -- 0.01in -- -- -- -- -- -- -- -- -- -- -- -- -- -- -- --
SNOWFALL 0in -- -- -- -- -- 0in -- -- -- -- -- 0in -- -- -- -- -- 0in -- -- -- -- -- 0in -- -- -- -- 0in -- 0in -- 0in -- 0in -- -- -- -- -- -- -- -- -- -- -- -- -- -- -- --
WIND SPEED(MPH) 13 13 13 13 13 13 10 10 9 9 9 9 9 9 9 9 9 9 8 7 7 7 6 6 2 2 2 1 1 1 2 6 7 7 7 5 1 1 1 1 0 5 7 7 7 5 7 5 2 2 5 2
WIND DIR E E E E E E E E E E E E E E E E E E E E E E NE NE NE NE N N N N N N N N N N N N NW W S S SW W W W W W W W W W
HeatIndex 56 56 56 54 54 54 52 52 52 52 50 50 50 52 52 54 56 56 58 58 58 58 56 56 56 54 54 54 52 52 50 50 56 58 59 56 45 43 61 58 47 41 61 58 45 39 59 58 47 42 65 63
Rain Showers Definite Definite Likely Likely Likely Chance Chance Chance Likely Likely Likely Likely Likely Likely Likely Likely Likely Likely Likely Chance Chance Chance Chance Chance Chance Chance Chance Chance Chance Chance Chance Chance Chance Chance Slight Chance -- -- -- -- -- -- -- -- Chance Slight Chance -- -- -- -- -- -- --
WIND CHILL -- -- -- -- -- -- -- -- -- -- -- -- -- -- -- -- -- -- -- -- -- -- -- -- -- -- -- -- -- -- -- -- -- -- -- -- -- -- -- -- -- 40° -- -- 41° 38° -- -- -- -- -- --
SPRAY COND
DRY COND
LIVESTOCK COLDSTRESS
LIVESTOCK HEATSTRESS 56.31 56.26 56.31 54.45 54.37 54.45 52.56 52.52 52.52 52.52 50.58 50.53 50.53 52.41 52.52 54.40 56.26 56.31 58.09 58.07 58.07 58.07 56.22 56.26 56.26 54.40 54.29 54.29 52.41 52.30 50.34 50.39 56.35 58.14 58.96 56.55 46.67 44.82 60.31 58.22 48.75 44.04 60.36 58.22 47.05 43.06 58.94 58.22 48.95 44.82 62.99 61.84

Click on individual weather variable above in left-hand column (ie., TEMP, RH, QPF 12HR) to view state forecast maps






NWS 48 Hr. Forecast Maps,

Regional Hourly Observations For BRACKEN County, Kentucky
Issued at 100 PM EDT MON APR 23 2018
NORTHEAST KENTUCKY
  
CITY           SKY/WX    TMP DP  RH WIND       PRES   REMARKS
LEXINGTON      PTSUNNY   58  54  86 E15G22    30.08F                  
COVINGTON      LGT RAIN  54  52  93 E12       30.12F FOG              
FRANKFORT      CLOUDY    58  54  86 E13       30.06F                  


Current NOWCAST not available:
Nowcasts are not issued routinely during fair weather. Only when
precipitation or other significant weather is occuring in this county will these
forecasts be issued. Currently, there is no short term forecast in effect.


Fire Weather Forecast For BRACKEN County, KY
Provided by the National Weather Service:

Issued at: Mon Apr 23 13:05:01 EDT 2018

CLOUD COVER                    Cloudy       Cloudy       Cloudy
PRECIP TYPE                   Showers      Showers      Showers
CHANCE PRECIP (%)                  90           80           70
TEMP (24H TREND)              59 (-6)       51 (0)           60
RH % (24H TREND)             51 (+19)     92 (+27)           79
20FTWND-AM(MPH)                  E  7                      E  8
20FTWND-PM(MPH)              E 10 G17     E 10 G17         E  7
PRECIP AMOUNT                    0.38         0.21         0.18
PRECIP DURATION                     8            7            7
MIXING HGT(FT-AGL)               3300                      3320
TRANSPORT WND (MPH)             SE 21                      E  6
LAL                                 1            1            1
HAINES INDEX                        3            3            2

REMARKS...None.

.FORECAST FOR DAYS 3 THROUGH 7...
.TUESDAY NIGHT...Cloudy with a chance of showers. Lows around 50.
Northeast winds around 5 mph. 
.WEDNESDAY...Cloudy with a chance of showers. Highs around 60. North winds
around 5 mph. 
.THURSDAY...Partly cloudy. Lows in the lower 40s. Highs in the lower 60s.
Northwest winds around 5 mph. 
.FRIDAY...Partly cloudy. Lows in the lower 40s. Highs in the mid 60s.
Southwest winds 5 to 10 mph. 
.SATURDAY...Partly cloudy. A chance of showers. Lows around 40. Highs in
the lower 60s. West winds around 5 mph. 
.SUNDAY...Mostly clear. Lows in the lower 40s. Highs in the upper 60s.
West winds around 5 mph. 

SPC's Fire Weather Web Tool (Excellent!), SPC's Fire Weather Outlooks, NWS Fire Weather WEB, Fire Danger Class Map,
Keetch-Byram Drought Index, ROMAN Web, Haines Index ,
WFAS's 10-hr Dead Fuel Moist., WFAS's 100-hr Dead Fuel Moist., Probablity of Ignition, Visual blackness Map, Palmer Drought Index, HPC's Rainfall Forecast Maps


Hazardous Weather Outlook For BRACKEN County, Kentucky
353 AM EDT Mon Apr 23 2018

 DAY ONE  Today and Tonight.

No hazardous weather is expected at this time.

 DAYS TWO THROUGH SEVEN  Tuesday through Sunday.

No hazardous weather is expected at this time.

 SPOTTER INFORMATION STATEMENT  

Spotter activation is not expected at this time.

Latest BRACKEN County, Kentucky Watches, Warnings and Advisories.
Additional Drought Info.: UKAWC Drought Page, Kentucky Drought Watch


7-Day Forecast For BRACKEN County, KY

THIS AFTERNOON
Showers. Highs in the upper 50s. East winds 10 to 15 mph. Chance of rain 100 percent.

TONIGHT
Showers. Lows in the lower 50s. East winds 10 to 15 mph. Chance of rain 90 percent.

TUESDAY
Showers likely. Highs around 60. East winds 5 to 10 mph. Chance of rain 70 percent.

TUESDAY NIGHT
Cloudy with a 50 percent chance of showers. Lows around 50. North winds around 5 mph.

WEDNESDAY
Mostly cloudy with a 30 percent chance of showers. Highs around 60. North winds 5 to 10 mph.

WEDNESDAY NIGHT
Partly cloudy. Lows in the lower 40s.

THURSDAY
Partly cloudy in the morning, then clearing. Highs in the lower 60s.

THURSDAY NIGHT
Mostly clear in the evening, then becoming partly cloudy. Lows in the lower 40s.

FRIDAY
Partly cloudy. Highs in the mid 60s.

FRIDAY NIGHT
Partly cloudy. A chance of showers in the evening. Lows around 40. Chance of rain 30 percent.

SATURDAY
Partly cloudy. Highs in the lower 60s.

SATURDAY NIGHT
Mostly clear. Lows in the lower 40s.

SUNDAY
Mostly sunny. Highs in the upper 60s.

Ag Weather Center, Department of Biosystems & Agricultural Engineering, University of Kentucky